QPF
0.04 0.04 0.04 0.02 0.02 0.02 0.03 0.03 0.03 0.03 0.04 0.05 0.05 0.05 0.05 0.06 0.07 0.08 0.08 0.08 0.08 0.09 0.11 0.11 0.09 0.08 0.09 0.09 0.09 0.10 0.11 0.11 0.11 0.09 0.08 0.07 0.07 0.08 0.08 0.06 0.05 0.06 0.05
0.05 0.07 0.07 0.03 0.02 0.02 0.02 0.02 0.03 0.05 0.05 0.06 0.05 0.05 0.06 0.07 0.08 0.09 0.09 0.08 0.08 0.08 0.08 0.10 0.10 0.09 0.09 0.09 0.10 0.10 0.11 0.10 0.08 0.08 0.09 0.08 0.07 0.07 0.07 0.06 0.05 0.06 0.06
0.04 0.05 0.06 0.05 0.03 0.02 0.01 0.01 0.02 0.04 0.06 0.07 0.07 0.07 0.06 0.07 0.08 0.09 0.09 0.08 0.08 0.07 0.07 0.07 0.08 0.10 0.10 0.10 0.10 0.10 0.11 0.10 0.09 0.09 0.09 0.08 0.07 0.06 0.07 0.07 0.05 0.05 0.06
0.03 0.04 0.04 0.05 0.05 0.02 0.02 0.01 0.02 0.03 0.06 0.08 0.09 0.09 0.08 0.08 0.09 0.09 0.09 0.08 0.09 0.09 0.08 0.07 0.08 0.08 0.09 0.10 0.10 0.11 0.11 0.11 0.09 0.10 0.10 0.08 0.08 0.07 0.07 0.09 0.08 0.07 0.05
0.03 0.03 0.03 0.04 0.05 0.04 0.03 0.02 0.02 0.03 0.05 0.08 0.11 0.09 0.09 0.09 0.08 0.08 0.09 0.09 0.09 0.10 0.10 0.09 0.09 0.09 0.09 0.10 0.10 0.10 0.11 0.11 0.11 0.10 0.09 0.08 0.07 0.08 0.09 0.09 0.09 0.09 0.07
0.02 0.02 0.02 0.03 0.04 0.04 0.04 0.04 0.03 0.03 0.05 0.07 0.11 0.12 0.11 0.09 0.10 0.09 0.08 0.08 0.09 0.09 0.10 0.09 0.09 0.09 0.09 0.10 0.10 0.10 0.10 0.10 0.10 0.10 0.08 0.07 0.06 0.06 0.07 0.08 0.10 0.10 0.10
0.01 0.01 0.01 0.02 0.03 0.03 0.03 0.04 0.04 0.05 0.06 0.07 0.08 0.13 0.14 0.11 0.09 0.09 0.09 0.08 0.08 0.08 0.08 0.08 0.09 0.10 0.11 0.10 0.10 0.10 0.10 0.10 0.10 0.09 0.08 0.07 0.06 0.05 0.06 0.08 0.09 0.09 0.08
0.01 0.01 0.01 0.01 0.02 0.02 0.02 0.03 0.05 0.06 0.08 0.08 0.07 0.10 0.14 0.13 0.10 0.08 0.09 0.08 0.07 0.07 0.07 0.07 0.08 0.09 0.10 0.09 0.10 0.09 0.08 0.08 0.09 0.07 0.07 0.05 0.05 0.05 0.06 0.09 0.10 0.11 0.10
0.02 0.01 0.01 0.02 0.02 0.02 0.02 0.03 0.05 0.08 0.08 0.08 0.08 0.10 0.13 0.14 0.12 0.10 0.09 0.09 0.08 0.08 0.08 0.08 0.07 0.08 0.09 0.09 0.08 0.08 0.08 0.07 0.08 0.08 0.06 0.05 0.06 0.06 0.08 0.10 0.11 0.12 0.12
0.01 0.02 0.02 0.02 0.03 0.03 0.03 0.03 0.04 0.07 0.08 0.08 0.09 0.10 0.12 0.13 0.13 0.12 0.11 0.10 0.09 0.10 0.11 0.10 0.09 0.08 0.08 0.07 0.06 0.07 0.07 0.06 0.07 0.07 0.06 0.05 0.06 0.07 0.10 0.10 0.09 0.09 0.09
0.02 0.01 0.02 0.02 0.03 0.03 0.04 0.03 0.04 0.06 0.09 0.09 0.10 0.11 0.12 0.13 0.12 0.12 0.14 0.11 0.09 0.09 0.10 0.10 0.10 0.09 0.08 0.07 0.06 0.05 0.06 0.06 0.06 0.07 0.06 0.06 0.06 0.08 0.09 0.09 0.08 0.08 0.07
0.02 0.02 0.02 0.02 0.03 0.03 0.04 0.05 0.04 0.06 0.09 0.11 0.12 0.13 0.16 0.16 0.12 0.12 0.14 0.14 0.11 0.08 0.08 0.08 0.09 0.09 0.08 0.07 0.06 0.06 0.07 0.07 0.07 0.06 0.06 0.06 0.06 0.06 0.07 0.07 0.07 0.08 0.07
0.02 0.02 0.02 0.02 0.03 0.04 0.04 0.05 0.07 0.08 0.10 0.12 0.13 0.15 0.19 0.21 0.18 0.17 0.18 0.19 0.16 0.09 0.07 0.07 0.07 0.07 0.07 0.06 0.06 0.07 0.07 0.07 0.07 0.06 0.05 0.05 0.05 0.05 0.05 0.06 0.07 0.08 0.09
0.02 0.02 0.02 0.03 0.04 0.04 0.04 0.05 0.07 0.11 0.12 0.13 0.14 0.15 0.18 0.21 0.22 0.21 0.21 0.20 0.17 0.11 0.08 0.08 0.08 0.07 0.07 0.06 0.06 0.07 0.07 0.08 0.07 0.06 0.05 0.04 0.05 0.05 0.05 0.05 0.07 0.08 0.09
0.03 0.02 0.02 0.03 0.05 0.04 0.04 0.05 0.07 0.10 0.12 0.14 0.14 0.14 0.16 0.19 0.20 0.21 0.19 0.15 0.12 0.10 0.08 0.07 0.08 0.08 0.07 0.07 0.06 0.07 0.09 0.09 0.07 0.06 0.05 0.05 0.05 0.05 0.05 0.05 0.06 0.07 0.08
0.03 0.03 0.02 0.03 0.04 0.03 0.04 0.05 0.07 0.09 0.10 0.12 0.14 0.16 0.15 0.16 0.16 0.17 0.14 0.10 0.08 0.07 0.06 0.05 0.06 0.06 0.05 0.06 0.06 0.08 0.09 0.08 0.06 0.05 0.05 0.05 0.06 0.06 0.06 0.07 0.07 0.07 0.07
0.04 0.03 0.03 0.03 0.03 0.03 0.04 0.06 0.08 0.09 0.10 0.11 0.12 0.14 0.15 0.15 0.15 0.15 0.13 0.10 0.09 0.07 0.05 0.05 0.05 0.04 0.04 0.05 0.07 0.08 0.08 0.07 0.06 0.05 0.05 0.05 0.06 0.06 0.06 0.07 0.08 0.07 0.06
0.04 0.05 0.05 0.04 0.03 0.03 0.03 0.05 0.07 0.10 0.11 0.12 0.12 0.14 0.16 0.16 0.15 0.14 0.13 0.11 0.12 0.10 0.07 0.06 0.04 0.04 0.04 0.05 0.06 0.07 0.07 0.07 0.06 0.06 0.06 0.05 0.05 0.05 0.06 0.06 0.06 0.06 0.05
0.03 0.04 0.05 0.05 0.03 0.02 0.03 0.05 0.07 0.09 0.11 0.12 0.13 0.16 0.19 0.21 0.19 0.16 0.14 0.11 0.10 0.08 0.07 0.06 0.05 0.05 0.05 0.05 0.06 0.07 0.07 0.07 0.06 0.06 0.06 0.05 0.05 0.05 0.06 0.06 0.06 0.06 0.04
0.02 0.03 0.04 0.04 0.03 0.02 0.03 0.04 0.07 0.08 0.09 0.11 0.13 0.15 0.17 0.19 0.19 0.17 0.14 0.10 0.08 0.07 0.06 0.06 0.06 0.06 0.07 0.07 0.07 0.08 0.08 0.07 0.06 0.06 0.06 0.05 0.05 0.05 0.05 0.06 0.05 0.05 0.04
0.02 0.02 0.03 0.03 0.03 0.03 0.03 0.04 0.06 0.07 0.08 0.10 0.12 0.14 0.15 0.15 0.15 0.13 0.09 0.08 0.07 0.07 0.06 0.06 0.06 0.07 0.08 0.07 0.07 0.07 0.08 0.07 0.06 0.07 0.07 0.06 0.06 0.06 0.07 0.06 0.05 0.04 0.03
0.03 0.03 0.02 0.02 0.02 0.03 0.03 0.03 0.05 0.06 0.08 0.10 0.12 0.14 0.14 0.12 0.11 0.09 0.08 0.07 0.07 0.07 0.06 0.06 0.06 0.07 0.08 0.08 0.07 0.07 0.07 0.07 0.06 0.07 0.07 0.07 0.07 0.07 0.07 0.06 0.05 0.04 0.03
0.03 0.03 0.02 0.02 0.02 0.03 0.03 0.04 0.05 0.06 0.09 0.11 0.11 0.11 0.12 0.11 0.10 0.09 0.08 0.07 0.07 0.07 0.06 0.06 0.07 0.07 0.08 0.08 0.08 0.07 0.07 0.07 0.07 0.07 0.08 0.08 0.08 0.07 0.07 0.05 0.04 0.03 0.03
0.02 0.03 0.03 0.03 0.03 0.03 0.03 0.03 0.05 0.07 0.10 0.11 0.11 0.10 0.11 0.11 0.10 0.09 0.08 0.07 0.07 0.07 0.06 0.06 0.06 0.06 0.06 0.06 0.07 0.07 0.06 0.07 0.07 0.07 0.07 0.07 0.07 0.06 0.06 0.06 0.04 0.02 0.02
0.02 0.02 0.02 0.03 0.03 0.03 0.03 0.03 0.05 0.06 0.09 0.10 0.11 0.10 0.10 0.10 0.09 0.09 0.08 0.08 0.08 0.07 0.06 0.06 0.06 0.05 0.05 0.05 0.05 0.05 0.06 0.07 0.07 0.07 0.07 0.07 0.06 0.06 0.06 0.05 0.03 0.03 0.03
0.02 0.02 0.02 0.02 0.02 0.02 0.02 0.03 0.04 0.05 0.07 0.08 0.09 0.09 0.09 0.09 0.09 0.08 0.08 0.08 0.08 0.07 0.06 0.06 0.05 0.05 0.04 0.04 0.05 0.05 0.06 0.06 0.07 0.07 0.07 0.07 0.07 0.07 0.06 0.04 0.03 0.03 0.04
MSLP
1007.42 1007.24 1007.08 1006.92 1006.77 1006.65 1006.58 1006.58 1006.67 1006.85 1007.13 1007.46 1007.82 1008.16 1008.44 1008.63 1008.73 1008.73 1008.67 1008.57 1008.46 1008.35 1008.24 1008.11 1007.92 1007.63 1007.20 1006.60 1005.83 1004.92 1003.90 1002.86 1001.88 1001.03 1000.40 1000.04 999.94 1000.11 1000.51 1001.09 1001.80 1002.57 1003.38
1007.07 1006.80 1006.54 1006.31 1006.12 1005.99 1005.93 1005.97 1006.11 1006.35 1006.67 1007.04 1007.41 1007.74 1008.00 1008.17 1008.23 1008.20 1008.10 1007.97 1007.83 1007.69 1007.57 1007.43 1007.25 1006.98 1006.59 1006.03 1005.31 1004.44 1003.48 1002.48 1001.53 1000.71 1000.08 999.70 999.59 999.74 1000.14 1000.72 1001.45 1002.27 1003.14
1006.85 1006.49 1006.16 1005.87 1005.64 1005.50 1005.46 1005.53 1005.71 1005.99 1006.33 1006.71 1007.08 1007.40 1007.62 1007.74 1007.76 1007.69 1007.55 1007.39 1007.23 1007.08 1006.94 1006.80 1006.63 1006.37 1005.99 1005.47 1004.78 1003.96 1003.04 1002.08 1001.16 1000.36 999.74 999.36 999.24 999.39 999.79 1000.39 1001.16 1002.04 1002.98
1006.72 1006.31 1005.92 1005.59 1005.34 1005.20 1005.17 1005.26 1005.46 1005.76 1006.11 1006.48 1006.82 1007.09 1007.27 1007.33 1007.30 1007.18 1007.01 1006.82 1006.64 1006.48 1006.35 1006.21 1006.03 1005.78 1005.42 1004.91 1004.25 1003.45 1002.56 1001.64 1000.75 999.97 999.37 999.00 998.90 999.07 999.49 1000.14 1000.96 1001.91 1002.94
1006.63 1006.19 1005.79 1005.44 1005.18 1005.04 1005.02 1005.12 1005.33 1005.62 1005.95 1006.29 1006.57 1006.78 1006.89 1006.89 1006.80 1006.64 1006.44 1006.24 1006.05 1005.89 1005.75 1005.61 1005.43 1005.18 1004.82 1004.31 1003.66 1002.88 1002.01 1001.12 1000.27 999.53 998.97 998.64 998.59 998.80 999.27 999.98 1000.87 1001.90 1003.01
1006.53 1006.10 1005.69 1005.35 1005.11 1004.97 1004.96 1005.07 1005.27 1005.53 1005.81 1006.08 1006.29 1006.41 1006.44 1006.38 1006.23 1006.03 1005.81 1005.60 1005.42 1005.26 1005.13 1004.99 1004.80 1004.53 1004.15 1003.63 1002.98 1002.21 1001.37 1000.51 999.71 999.03 998.54 998.29 998.30 998.59 999.14 999.91 1000.88 1001.98 1003.17
1006.37 1005.97 1005.59 1005.28 1005.05 1004.94 1004.93 1005.03 1005.20 1005.41 1005.63 1005.81 1005.93 1005.96 1005.90 1005.77 1005.57 1005.34 1005.12 1004.91 1004.74 1004.59 1004.46 1004.31 1004.11 1003.81 1003.40 1002.86 1002.19 1001.42 1000.61 999.80 999.06 998.47 998.08 997.94 998.06 998.44 999.08 999.94 1000.98 1002.14 1003.38
1006.13 1005.77 1005.44 1005.16 1004.96 1004.86 1004.86 1004.94 1005.07 1005.21 1005.35 1005.44 1005.46 1005.40 1005.26 1005.06 1004.83 1004.59 1004.36 1004.17 1004.01 1003.88 1003.74 1003.58 1003.34 1003.01 1002.56 1001.98 1001.29 1000.53 999.74 999.00 998.36 997.88 997.62 997.60 997.86 998.36 999.10 1000.04 1001.13 1002.32 1003.58
1005.79 1005.48 1005.19 1004.96 1004.79 1004.71 1004.70 1004.75 1004.83 1004.91 1004.96 1004.95 1004.88 1004.73 1004.53 1004.29 1004.03 1003.79 1003.58 1003.41 1003.27 1003.14 1003.00 1002.81 1002.54 1002.16 1001.65 1001.03 1000.32 999.57 998.82 998.16 997.62 997.28 997.17 997.31 997.70 998.33 999.17 1000.17 1001.29 1002.49 1003.72
1005.37 1005.10 1004.86 1004.66 1004.52 1004.45 1004.43 1004.45 1004.47 1004.48 1004.45 1004.36 1004.20 1003.99 1003.75 1003.48 1003.23 1003.00 1002.82 1002.67 1002.55 1002.43 1002.28 1002.05 1001.73 1001.28 1000.72 1000.05 999.33 998.59 997.90 997.32 996.91 996.72 996.77 997.07 997.61 998.36 999.28 1000.32 1001.45 1002.62 1003.80
1004.88 1004.65 1004.44 1004.27 1004.15 1004.08 1004.04 1004.02 1003.99 1003.94 1003.83 1003.68 1003.46 1003.22 1002.95 1002.68 1002.45 1002.25 1002.11 1001.99 1001.89 1001.77 1001.59 1001.33 1000.94 1000.44 999.82 999.11 998.37 997.65 997.02 996.55 996.27 996.23 996.45 996.91 997.59 998.45 999.44 1000.51 1001.62 1002.73 1003.83
1004.35 1004.14 1003.95 1003.80 1003.69 1003.61 1003.55 1003.49 1003.41 1003.30 1003.14 1002.94 1002.69 1002.43 1002.16 1001.92 1001.72 1001.57 1001.46 1001.38 1001.30 1001.17 1000.97 1000.65 1000.22 999.65 998.98 998.24 997.49 996.81 996.26 995.89 995.75 995.86 996.23 996.85 997.65 998.60 999.65 1000.73 1001.81 1002.86 1003.86
1003.80 1003.60 1003.42 1003.27 1003.15 1003.06 1002.97 1002.87 1002.76 1002.60 1002.41 1002.18 1001.92 1001.66 1001.42 1001.21 1001.06 1000.95 1000.89 1000.84 1000.76 1000.63 1000.39 1000.04 999.55 998.93 998.22 997.47 996.74 996.10 995.63 995.37 995.37 995.63 996.15 996.90 997.81 998.84 999.93 1001.01 1002.06 1003.04 1003.96
1003.22 1003.02 1002.85 1002.69 1002.56 1002.45 1002.33 1002.20 1002.05 1001.87 1001.65 1001.41 1001.16 1000.92 1000.72 1000.56 1000.45 1000.39 1000.36 1000.33 1000.26 1000.11 999.85 999.46 998.93 998.28 997.56 996.81 996.12 995.55 995.16 995.02 995.15 995.54 996.20 997.06 998.07 999.17 1000.29 1001.38 1002.40 1003.33 1004.18
1002.62 1002.42 1002.24 1002.07 1001.93 1001.79 1001.65 1001.50 1001.32 1001.12 1000.90 1000.67 1000.43 1000.22 1000.05 999.94 999.87 999.84 999.84 999.82 999.75 999.59 999.31 998.89 998.34 997.69 996.98 996.26 995.63 995.14 994.86 994.83 995.08 995.60 996.37 997.33 998.42 999.57 1000.72 1001.82 1002.82 1003.73 1004.54
1001.98 1001.78 1001.59 1001.41 1001.26 1001.10 1000.95 1000.78 1000.59 1000.39 1000.17 999.95 999.74 999.56 999.42 999.34 999.30 999.30 999.30 999.29 999.21 999.03 998.73 998.31 997.77 997.13 996.46 995.81 995.26 994.87 994.70 994.78 995.15 995.77 996.63 997.68 998.83 1000.02 1001.20 1002.31 1003.32 1004.22 1005.02
1001.29 1001.08 1000.89 1000.71 1000.55 1000.39 1000.23 1000.06 999.88 999.67 999.47 999.26 999.07 998.92 998.80 998.74 998.72 998.72 998.72 998.69 998.60 998.41 998.12 997.70 997.18 996.60 995.99 995.43 994.98 994.71 994.65 994.85 995.31 996.03 996.96 998.05 999.25 1000.47 1001.67 1002.80 1003.83 1004.75 1005.57
1000.52 1000.32 1000.14 999.97 999.82 999.67 999.51 999.35 999.17 998.99 998.79 998.60 998.43 998.29 998.19 998.13 998.11 998.10 998.09 998.04 997.94 997.74 997.45 997.06 996.60 996.08 995.57 995.12 994.79 994.63 994.69 994.99 995.54 996.32 997.30 998.43 999.65 1000.89 1002.10 1003.25 1004.31 1005.26 1006.12
999.69 999.50 999.34 999.20 999.06 998.93 998.80 998.65 998.49 998.32 998.14 997.97 997.81 997.68 997.58 997.51 997.47 997.45 997.41 997.34 997.22 997.03 996.76 996.41 996.01 995.59 995.18 994.85 994.65 994.61 994.78 995.18 995.80 996.63 997.63 998.77 999.99 1001.23 1002.45 1003.61 1004.70 1005.69 1006.60
998.79 998.64 998.51 998.40 998.29 998.19 998.08 997.96 997.82 997.67 997.50 997.34 997.19 997.06 996.95 996.87 996.81 996.75 996.69 996.61 996.48 996.29 996.05 995.76 995.44 995.12 994.84 994.64 994.56 994.64 994.92 995.39 996.07 996.92 997.94 999.07 1000.27 1001.49 1002.70 1003.87 1004.97 1006.00 1006.96
997.86 997.74 997.66 997.59 997.52 997.45 997.37 997.27 997.15 997.01 996.85 996.70 996.55 996.41 996.29 996.19 996.11 996.03 995.95 995.85 995.73 995.56 995.36 995.14 994.91 994.70 994.54 994.47 994.52 994.72 995.08 995.63 996.34 997.22 998.22 999.32 1000.49 1001.69 1002.87 1004.03 1005.15 1006.20 1007.20
996.91 996.85 996.81 996.78 996.75 996.71 996.65 996.57 996.45 996.32 996.17 996.01 995.86 995.72 995.59 995.48 995.38 995.29 995.20 995.10 994.99 994.86 994.71 994.57 994.43 994.33 994.30 994.36 994.53 994.83 995.29 995.89 996.64 997.52 998.50 999.57 1000.70 1001.85 1003.01 1004.15 1005.26 1006.33 1007.35
995.97 995.96 995.97 995.98 995.99 995.97 995.92 995.84 995.72 995.59 995.43 995.27 995.12 994.97 994.84 994.73 994.63 994.55 994.47 994.39 994.30 994.22 994.14 994.08 994.04 994.06 994.14 994.32 994.61 995.01 995.54 996.20 996.97 997.85 998.82 999.85 1000.94 1002.04 1003.16 1004.27 1005.36 1006.43 1007.46
995.04 995.08 995.14 995.19 995.21 995.20 995.15 995.06 994.94 994.79 994.63 994.47 994.32 994.18 994.06 993.96 993.89 993.83 993.78 993.74 993.70 993.68 993.68 993.70 993.77 993.89 994.09 994.38 994.77 995.27 995.87 996.58 997.38 998.26 999.21 1000.21 1001.24 1002.30 1003.37 1004.44 1005.50 1006.55 1007.57
994.12 994.22 994.31 994.38 994.42 994.40 994.34 994.24 994.10 993.94 993.78 993.62 993.49 993.37 993.28 993.23 993.19 993.18 993.19 993.21 993.24 993.29 993.37 993.49 993.65 993.88 994.19 994.58 995.06 995.63 996.30 997.05 997.87 998.76 999.69 1000.66 1001.65 1002.66 1003.68 1004.70 1005.72 1006.73 1007.73
993.22 993.36 993.48 993.56 993.59 993.56 993.49 993.37 993.22 993.06 992.91 992.78 992.67 992.60 992.57 992.58 992.61 992.67 992.76 992.85 992.97 993.11 993.28 993.48 993.74 994.06 994.46 994.93 995.49 996.14 996.85 997.64 998.47 999.35 1000.27 1001.20 1002.15 1003.11 1004.07 1005.04 1006.00 1006.97 1007.92
Thickness
5497 5494 5491 5489 5487 5484 5481 5480 5479 5479 5478 5479 5480 5481 5482 5484 5487 5490 5492 5495 5498 5502 5506 5511 5515 5518 5522 5526 5530 5535 5539 5542 5544 5548 5552 5555 5556 5558 5558 5559 5560 5560 5558
5486 5483 5480 5478 5476 5473 5471 5470 5469 5469 5470 5471 5472 5473 5475 5478 5481 5483 5486 5488 5491 5495 5500 5504 5508 5511 5515 5519 5524 5528 5533 5536 5537 5539 5542 5544 5547 5548 5548 5549 5551 5551 5550
5476 5472 5469 5467 5465 5463 5462 5461 5459 5460 5461 5463 5464 5466 5469 5472 5475 5478 5480 5482 5485 5489 5494 5498 5502 5504 5508 5513 5517 5522 5526 5530 5532 5532 5534 5535 5536 5538 5538 5540 5542 5542 5541
5465 5461 5458 5456 5455 5454 5452 5451 5451 5451 5453 5456 5458 5460 5463 5467 5470 5472 5474 5476 5479 5484 5489 5493 5496 5500 5504 5508 5512 5516 5520 5522 5524 5525 5526 5526 5527 5528 5530 5532 5533 5532 5532
5453 5450 5448 5446 5445 5444 5443 5442 5443 5444 5446 5449 5452 5455 5458 5462 5465 5468 5470 5472 5476 5479 5483 5487 5492 5496 5500 5503 5508 5512 5515 5517 5517 5518 5518 5518 5520 5521 5525 5527 5526 5523 5523
5442 5440 5439 5438 5437 5435 5434 5435 5436 5437 5440 5443 5446 5450 5454 5458 5462 5465 5466 5470 5474 5477 5480 5484 5488 5491 5496 5500 5504 5508 5513 5515 5515 5515 5515 5517 5519 5520 5521 5521 5518 5516 5516
5432 5432 5431 5429 5428 5427 5427 5427 5428 5431 5434 5438 5442 5445 5449 5454 5458 5463 5465 5468 5472 5475 5478 5481 5485 5489 5492 5496 5499 5503 5508 5511 5514 5515 5515 5517 5517 5519 5517 5516 5514 5515 5514
5423 5423 5421 5420 5419 5419 5419 5420 5422 5424 5428 5432 5437 5441 5445 5451 5456 5460 5463 5466 5469 5473 5476 5480 5483 5486 5489 5492 5495 5497 5501 5504 5507 5510 5512 5514 5513 5514 5514 5514 5510 5506 5502
5414 5413 5412 5411 5411 5411 5412 5413 5416 5419 5424 5428 5433 5438 5443 5448 5453 5457 5460 5464 5467 5471 5475 5478 5481 5484 5487 5489 5491 5493 5495 5497 5500 5503 5505 5506 5507 5508 5507 5505 5502 5501 5496
5404 5403 5403 5403 5403 5405 5407 5408 5411 5414 5419 5424 5430 5435 5441 5446 5451 5455 5458 5462 5465 5469 5472 5475 5478 5482 5484 5486 5489 5490 5491 5492 5493 5495 5496 5498 5499 5500 5501 5502 5503 5500 5493
5395 5395 5395 5396 5396 5399 5401 5404 5407 5411 5415 5420 5426 5433 5439 5445 5450 5454 5457 5462 5466 5468 5470 5472 5475 5477 5480 5483 5485 5486 5488 5488 5487 5488 5489 5490 5491 5492 5493 5494 5495 5496 5492
5386 5386 5387 5388 5390 5393 5395 5399 5402 5406 5411 5417 5423 5431 5438 5443 5448 5452 5456 5460 5463 5466 5468 5470 5471 5473 5476 5478 5480 5480 5481 5481 5482 5482 5483 5484 5485 5485 5484 5484 5485 5485 5485
5377 5378 5379 5382 5383 5386 5389 5393 5398 5402 5407 5413 5419 5427 5434 5440 5445 5449 5452 5456 5459 5463 5465 5467 5468 5469 5470 5472 5474 5475 5476 5477 5479 5479 5480 5479 5479 5478 5477 5476 5474 5474 5473
5368 5370 5372 5374 5378 5381 5384 5388 5392 5397 5403 5409 5416 5423 5429 5435 5440 5443 5446 5449 5453 5457 5459 5460 5461 5463 5464 5465 5467 5470 5473 5475 5477 5477 5475 5473 5472 5471 5471 5470 5468 5465 5461
5360 5362 5365 5368 5371 5375 5380 5383 5388 5393 5398 5405 5412 5418 5423 5429 5434 5439 5442 5445 5447 5450 5453 5454 5454 5455 5457 5459 5462 5465 5468 5470 5471 5471 5471 5469 5467 5466 5464 5463 5462 5460 5455
5353 5355 5358 5360 5364 5369 5374 5380 5386 5390 5396 5402 5409 5415 5421 5426 5431 5435 5438 5442 5444 5447 5450 5451 5451 5453 5455 5457 5460 5461 5463 5466 5467 5467 5467 5465 5463 5461 5458 5456 5455 5453 5449
5345 5347 5351 5354 5358 5362 5368 5373 5379 5387 5393 5399 5405 5411 5418 5423 5427 5431 5434 5437 5440 5444 5446 5447 5449 5451 5453 5455 5457 5459 5460 5462 5463 5463 5462 5460 5458 5456 5454 5452 5448 5445 5441
5339 5342 5345 5348 5352 5356 5361 5366 5372 5379 5385 5392 5399 5406 5412 5418 5422 5426 5430 5433 5435 5438 5440 5443 5446 5448 5450 5452 5454 5455 5457 5457 5458 5457 5456 5455 5454 5452 5450 5447 5443 5440 5436
5334 5336 5339 5343 5347 5351 5356 5361 5367 5372 5377 5384 5391 5399 5405 5411 5417 5420 5425 5428 5430 5432 5435 5438 5441 5445 5448 5449 5451 5452 5454 5455 5454 5453 5452 5450 5449 5448 5445 5442 5438 5435 5432
5329 5332 5335 5338 5341 5346 5350 5355 5361 5365 5371 5377 5383 5390 5397 5404 5409 5413 5417 5421 5425 5428 5431 5434 5438 5441 5444 5446 5448 5449 5451 5450 5449 5449 5448 5446 5445 5444 5441 5438 5435 5431 5427
5323 5326 5331 5333 5336 5340 5344 5349 5354 5359 5365 5370 5376 5383 5391 5396 5402 5407 5411 5415 5420 5423 5427 5431 5434 5438 5441 5443 5445 5447 5448 5447 5446 5445 5444 5442 5441 5439 5437 5434 5430 5426 5421
5318 5321 5324 5327 5331 5335 5339 5344 5349 5354 5360 5366 5371 5378 5386 5391 5397 5402 5406 5411 5415 5420 5424 5428 5431 5434 5437 5440 5443 5445 5445 5444 5443 5442 5441 5439 5437 5435 5432 5429 5425 5420 5416
5313 5316 5320 5323 5326 5331 5336 5340 5345 5350 5355 5361 5367 5373 5379 5385 5391 5397 5403 5407 5411 5416 5420 5424 5428 5431 5433 5436 5439 5442 5443 5443 5443 5442 5440 5437 5434 5432 5429 5425 5421 5416 5412
5309 5312 5315 5318 5322 5326 5331 5336 5341 5346 5351 5357 5363 5368 5374 5380 5386 5393 5399 5404 5408 5413 5417 5421 5425 5429 5431 5433 5435 5437 5439 5440 5440 5439 5438 5436 5432 5429 5425 5421 5416 5412 5408
5306 5308 5312 5315 5319 5323 5328 5333 5338 5343 5349 5355 5360 5365 5371 5377 5383 5390 5395 5401 5405 5410 5414 5418 5422 5426 5429 5431 5433 5435 5436 5438 5438 5437 5435 5433 5429 5425 5422 5417 5412 5408 5404
5303 5306 5309 5312 5316 5321 5326 5331 5336 5341 5347 5352 5357 5363 5369 5375 5381 5387 5393 5398 5403 5407 5412 5416 5420 5423 5426 5428 5431 5433 5434 5435 5435 5434 5431 5429 5426 5422 5418 5414 5409 5405 5401